This is the latest recevied weather packets stored in our database for station/object KD8OZS. If no packets are shown the sender has not sent any weather packets the latest 10 day(s).
| Time | Temp. | Humidity | Pressure | Rain* | Wind** | Luminosity | Snow |
|---|---|---|---|---|---|---|---|
| 1777735130 | 5° C | 83% | 1009.8 hPa | 0 mm | - | 167 W/m² | - |
| 1777734826 | 5° C | 84% | 1009.7 hPa | 0 mm | - | 155 W/m² | - |
| 1777734523 | 5° C | 85% | 1009.9 hPa | 0 mm | - | 194 W/m² | - |
| 1777734220 | 5° C | 86% | 1009.9 hPa | 0 mm | - | 270 W/m² | - |
| 1777733916 | 3.89° C | 87% | 1009.9 hPa | 0 mm | - | 329 W/m² | - |
| 1777733613 | 3.89° C | 88% | 1010 hPa | 0 mm | - | 271 W/m² | - |
| 1777733309 | 3.89° C | 87% | 1009.8 hPa | 0 mm | - | 154 W/m² | - |
| 1777733006 | 3.89° C | 87% | 1010 hPa | 0 mm | - | 96 W/m² | - |
| 1777732702 | 3.89° C | 87% | 1009.8 hPa | 0 mm | - | 75 W/m² | - |
| 1777732399 | 4.44° C | 86% | 1009.8 hPa | 0 mm | - | 71 W/m² | - |
| 1777732097 | 4.44° C | 87% | 1009.9 hPa | 0 mm | - | 69 W/m² | - |
| 1777731794 | 3.89° C | 87% | 1009.8 hPa | 0 mm | - | 133 W/m² | - |
| 1777731491 | 3.89° C | 88% | 1009.7 hPa | 0 mm | - | 159 W/m² | - |
| 1777731189 | 3.89° C | 88% | 1009.8 hPa | 0 mm | - | 96 W/m² | - |
| 1777730887 | 3.33° C | 88% | 1009.7 hPa | 0 mm | - | 93 W/m² | - |
| 1777730584 | 3.89° C | 88% | 1009.5 hPa | 0 mm | - | 67 W/m² | - |
| 1777730280 | 3.89° C | 88% | 1009.4 hPa | 0 mm | - | 40 W/m² | - |
| 1777729977 | 3.89° C | 87% | 1009.6 hPa | 0 mm | - | 29 W/m² | - |
| 1777729672 | 3.89° C | 87% | 1009.4 hPa | 0 mm | - | 27 W/m² | - |
| 1777729370 | 3.89° C | 86% | 1009.5 hPa | 0 mm | - | 33 W/m² | - |
| 1777729066 | 3.89° C | 86% | 1009.5 hPa | 0 mm | - | 57 W/m² | - |
| 1777728763 | 4.44° C | 85% | 1009.2 hPa | 0 mm | - | 76 W/m² | - |
| 1777728459 | 5° C | 85% | 1009.2 hPa | 0 mm | - | 122 W/m² | - |
| 1777728157 | 5° C | 85% | 1009.1 hPa | 0 mm | - | 264 W/m² | - |
| 1777727854 | 5° C | 85% | 1009 hPa | 0 mm | - | 269 W/m² | - |
* Rain latest hour (hover to see other rain measurements)
** Current wind speed in m/s (hover to see current wind gust speed)